Regional Weather Roundup
Issued by NWS

Home | Current Version | Previous Version | Graphics & Text | Print | Product List | Glossary On
Versions: 1 2 3 4 5 6 7 8 9 10 11 12 13 14 15 16 17 18 19 20 21 22 23 24 25 26 27 28 29 30 31 32 33 34 35 36 37 38 39 40 41 42 43 44 45 46 47 48 49 50
000
ASUS43 KMPX 221601
RWRMN
WEATHER ROUNDUP FOR MINNESOTA
NATIONAL WEATHER SERVICE TWIN CITIES/CHANHASSEN MN
1100 AM CDT FRI MAY 22 2015


NOTE: "FAIR" INDICATES FEW OR NO CLOUDS BELOW 12,000 FEET WITH NO
SIGNIFICANT WEATHER AND/OR OBSTRUCTIONS TO VISIBILITY. N/A MEANS
CURRENT SKY AND/OR WEATHER CONDITIONS ARE NOT AVAILABLE.

MNZ060>063-068>070-221700-
   Twin Cities Metro

CITY           SKY/WX    TMP DP  RH WIND       PRES   REMARKS
TWIN CITIES    SUNNY     67  34  29 CALM      30.22R
ST PAUL        SUNNY     68  34  28 N3        30.22R
CRYSTAL        SUNNY     68  31  25 CALM      30.21R
BLAINE         SUNNY     66  34  30 CALM      30.22R
LAKEVILLE      SUNNY     64  36  34 CALM      30.23R
EDEN PRAIRIE   SUNNY     68  38  33 S5        30.22R
SOUTH ST PAUL  SUNNY     67  33  28 CALM      30.22R
LAKE ELMO      FAIR      64  34  32 E3        30.23R
$$
MNZ001>005-007-008-013>017-022>024-027-028-221700-
   Northwest Minnesota

CITY           SKY/WX    TMP DP  RH WIND       PRES   REMARKS
BEMIDJI        SUNNY     64  34  32 NW3       30.19S
HALLOCK        SUNNY     68  39  34 S8        30.15F
ROSEAU         SUNNY     66  39  37 SW8       30.17S
WARROAD        SUNNY     66  43  42 SW10      30.17F
THIEF RVR FALL SUNNY     64  34  32 S6        30.19F
CROOKSTON      SUNNY     66  34  30 S6        30.18F
FOSSTON        SUNNY     66  52  59 CALM      30.19F
DETROIT LAKES  SUNNY     64  34  32 CALM      30.21S
MOORHEAD       SUNNY     64  36  34 SE3       30.20S
PARK RAPIDS    SUNNY     66  33  29 VRB5      30.19F
MAHNOMEN       FAIR      64  34  32 NE6       30.19F
$$
MNZ006-009>011-018-025>026-221700-
   North Central Minnesota

CITY           SKY/WX    TMP DP  RH WIND       PRES   REMARKS
BAUDETTE       SUNNY     65  37  35 VRB3      30.17F
FLAG ISLAND    SUNNY     54  43  66 S13       30.15S
INTL FALLS     SUNNY     65  29  25 W7        30.18S
WASKISH        SUNNY     63  43  48 W7        30.19S
BIG FORK       SUNNY     66  30  26 CALM      30.20S
LONGVILLE      SUNNY     64  30  27 CALM      30.20F
GRAND RAPIDS   SUNNY     63  28  27 NW6       30.21F
CRANE LAKE     SUNNY     61  27  27 N8        30.20F
COOK           SUNNY     63  32  31 W7        30.20F
WALKER         FAIR      63  36  37 E5        30.19F
$$
MNZ012-019>021-037-221700-
   Northeast Minnesota

CITY           SKY/WX    TMP DP  RH WIND       PRES   REMARKS
DULUTH         SUNNY     64  31  28 NW9       30.21S
ELY            SUNNY     61  25  25 W6        30.19F
HIBBING        SUNNY     64  28  25 MISG      30.20S
EVELETH        SUNNY     63  32  31 SW3       30.21F
DULUTH HARBOR  SUNNY     46  37  71 NE3       30.24F
TWO HARBORS    SUNNY     59  37  44 SE7       30.20S
SILVER BAY     SUNNY     55  30  38 SE6       30.20S
GRAND MARAIS     N/A     42  32  67 E7        30.24S
G MARAIS ARPRT SUNNY     55  23  28 SE3       30.20F
$$
MNZ029>031-032-039>041-046>048-054>057-064-221700-
   West Central Minnesota

CITY           SKY/WX    TMP DP  RH WIND       PRES   REMARKS
FERGUS FALLS   SUNNY     66  36  32 CALM      30.20F
WHEATON        SUNNY     66  36  32 CALM      30.22S
MORRIS         SUNNY     68  37  32 CALM      30.20S
ALEXANDRIA     SUNNY     65  34  31 SW7       30.22S
ELBOW LAKE     FAIR      64  36  35 CALM      30.21R
WADENA         SUNNY     64  37  36 S5        30.20S
GLENWOOD       SUNNY     64  36  34 S3        30.22S
APPLETON       SUNNY     70  36  28 NW3       30.20S
BENSON         SUNNY     66  36  32 SW3       30.21S
ORTONVILLE     SUNNY     68  34  28 NE5       30.20S
MADISON        SUNNY     68  34  28 CALM      30.20S
WILLMAR        FAIR      66  34  30 CALM      30.23S
$$
MNZ033>034-036-042>043-049>051-058-059-221700-
   Central Minnesota

CITY           SKY/WX    TMP DP  RH WIND       PRES   REMARKS
ST CLOUD       SUNNY     65  34  31 CALM      30.22R
SAUK CENTRE    FAIR      65  34  32 SE6       30.22S
PAYNESVILLE    SUNNY     63  34  34 E7        30.23S
AITKIN         SUNNY     66  25  20 NW5       30.20S
PINE RIVER     SUNNY     64  37  36 CALM      30.23F
BRAINERD       SUNNY     65  33  30 NE3       30.21F
STAPLES        SUNNY     64  30  27 W5        30.21S
LONG PRAIRIE   FAIR      63  34  34 CALM      30.22S
LITTLE FALLS   SUNNY     64  32  29 SE5       30.22R
LITCHFIELD     SUNNY     66  36  32 CALM      30.23S
BUFFALO        SUNNY     65  33  30 CALM      30.24R
MAPLE LAKE     SUNNY     67  38  34 CALM      30.24R
$$
MNZ037-044-045-052-053-221700-
   East Central Minnesota

CITY           SKY/WX    TMP DP  RH WIND       PRES   REMARKS
PRINCETON      SUNNY     66  32  28 CALM      30.22S
MORA           SUNNY     64  34  32 CALM      30.23S
CAMBRIDGE      SUNNY     68  43  40 CALM      30.20S
RUSH CITY      SUNNY     64  33  31 N3        30.22S
MOOSE LAKE     SUNNY     63  32  31 CALM      30.20S
HINCKLEY       FAIR      63  36  36 CALM      30.21F
CLOQUET        SUNNY     63  25  23 CALM      30.21F
MCGREGOR       SUNNY     63  32  31 NE3       30.22S
$$
MNZ071>073-080-081-089-090-097-098-221700-
   Southwest Minnesota

CITY           SKY/WX    TMP DP  RH WIND       PRES   REMARKS
MONTEVIDEO     SUNNY     70  37  30 SE3       30.21F
GRANITE FALLS  SUNNY     67  36  31 SE5       30.22F
CANBY          SUNNY     67  35  30 CALM      30.22S
MARSHALL       SUNNY     66  36  32 CALM      30.21S
REDWOOD FALLS  SUNNY     67  33  28 S3        30.21F
OLIVIA         SUNNY     66  32  28 SE6       30.21S
WINDOM         SUNNY     68  34  28 CALM      30.22S
WORTHINGTON    SUNNY     66  34  30 SW6       30.22S
JACKSON        SUNNY     68  32  26 CALM      30.23R
TRACY          SUNNY     67  37  32 CALM      30.22S
SLAYTON        SUNNY     66  31  26 CALM      30.23R
$$
MNZ065>067-074>077-082>085-091>093-221700-
   South Central Minnesota

CITY           SKY/WX    TMP DP  RH WIND       PRES   REMARKS
MANKATO        SUNNY     66  34  30 CALM      30.22F
NEW ULM        SUNNY     66  30  26 CALM      30.22S
FAIRMONT       SUNNY     68  34  28 E6        30.21F
GLENCOE        SUNNY     68  38  32 E6        30.22R
FARIBAULT      SUNNY     66  32  28 W3        30.23R
OWATONNA       SUNNY     66  30  26 CALM      30.22S
WASECA         SUNNY     64  32  29 CALM      30.23S
ALBERT LEA     SUNNY     66  32  28 CALM      30.21S
$$
MNZ078>079-086>088-094>096-221700-
   Southeast Minnesota

CITY           SKY/WX    TMP DP  RH WIND       PRES   REMARKS
ROCHESTER      SUNNY     67  37  33 N6        30.24R
RED WING       SUNNY     68  36  30 W3        30.21R
STANTON        SUNNY     67  30  24 NE5       30.21R
DODGE CENTER   MOSUNNY   66  28  24 CALM      30.22S
WINONA         SUNNY     63  43  48 CALM      30.22R
AUSTIN         SUNNY     68  37  32 NE3       30.22R
PRESTON        SUNNY     65  34  31 CALM      30.22S
$$
ABBREVIATIONS USED IN REMARKS
   TC - TEMPERATURES IN CELSIUS
  WCI - WIND CHILL INDEX
   HX - HEAT INDEX
  VSB - VISIBILITY
$$



USA.gov is the U.S. government's official web portal to all federal, state and local government web resources and services.